TimeEDT,TemperatureF,Dew PointF,Humidity,Sea Level PressureIn,VisibilityMPH,Wind Direction,Wind SpeedMPH,Gust SpeedMPH,PrecipitationIn,Events,Conditions,WindDirDegrees,DateUTC
12:02 AM,53.6,53.6,100,29.82,3.0,SSW,5.8,-,0.03,Rain,Rain,200,2013-10-07 04:02:00
12:34 AM,53.6,53.6,100,29.80,4.0,SSW,4.6,-,0.11,Rain,Rain,210,2013-10-07 04:34:00
12:43 AM,53.6,53.6,100,29.80,4.0,SW,4.6,-,0.12,Rain,Rain,220,2013-10-07 04:43:00
12:51 AM,54.0,54.0,100,29.79,5.0,SSW,5.8,-,0.14,Rain,Heavy Rain,210,2013-10-07 04:51:00
1:51 AM,54.0,53.1,97,29.79,6.0,WSW,9.2,-,0.16,Rain,Rain,250,2013-10-07 05:51:00
2:51 AM,53.1,52.0,96,29.80,9.0,WNW,11.5,-,0.12,Rain,Light Rain,290,2013-10-07 06:51:00
3:09 AM,53.6,50.0,88,29.82,10.0,West,10.4,-,0.00,,Overcast,280,2013-10-07 07:09:00
3:27 AM,53.6,48.2,82,29.83,10.0,West,8.1,-,0.00,,Overcast,260,2013-10-07 07:27:00
3:51 AM,53.1,46.0,77,29.81,10.0,West,9.2,-,0.00,,Overcast,260,2013-10-07 07:51:00
4:51 AM,52.0,46.0,80,29.83,10.0,West,6.9,-,N/A,,Mostly Cloudy,260,2013-10-07 08:51:00
5:51 AM,50.0,42.1,74,29.85,10.0,WSW,6.9,-,N/A,,Scattered Clouds,250,2013-10-07 09:51:00
6:51 AM,50.0,43.0,77,29.86,10.0,SW,5.8,-,N/A,,Mostly Cloudy,220,2013-10-07 10:51:00
7:51 AM,48.0,43.0,83,29.87,10.0,South,5.8,-,N/A,,Scattered Clouds,190,2013-10-07 11:51:00
8:51 AM,50.0,43.0,77,29.88,10.0,SW,9.2,-,N/A,,Mostly Cloudy,230,2013-10-07 12:51:00
9:51 AM,51.1,43.0,74,29.90,10.0,Variable,6.9,-,N/A,,Mostly Cloudy,0,2013-10-07 13:51:00
10:36 AM,51.8,44.6,76,29.91,10.0,WSW,10.4,-,N/A,,Overcast,240,2013-10-07 14:36:00
10:51 AM,52.0,44.1,74,29.92,10.0,West,10.4,-,N/A,,Overcast,260,2013-10-07 14:51:00
11:51 AM,54.0,44.1,69,29.94,10.0,WSW,12.7,-,N/A,,Overcast,250,2013-10-07 15:51:00
12:38 PM,53.6,42.8,67,29.95,10.0,West,10.4,-,N/A,,Overcast,270,2013-10-07 16:38:00
12:51 PM,54.0,44.1,69,29.96,10.0,WSW,9.2,-,N/A,,Overcast,250,2013-10-07 16:51:00
1:51 PM,59.0,45.0,60,29.95,10.0,West,12.7,-,N/A,,Mostly Cloudy,280,2013-10-07 17:51:00
2:51 PM,62.1,42.1,48,29.95,10.0,WSW,17.3,20.7,N/A,,Scattered Clouds,250,2013-10-07 18:51:00
3:51 PM,61.0,41.0,48,29.97,10.0,West,16.1,20.7,N/A,,Scattered Clouds,270,2013-10-07 19:51:00
4:51 PM,61.0,42.1,50,29.99,10.0,West,15.0,20.7,N/A,,Mostly Cloudy,280,2013-10-07 20:51:00
5:51 PM,59.0,42.1,53,30.01,10.0,WNW,15.0,-,N/A,,Overcast,290,2013-10-07 21:51:00
6:51 PM,59.0,43.0,55,30.04,10.0,West,10.4,-,N/A,,Overcast,280,2013-10-07 22:51:00
7:51 PM,57.9,44.1,60,30.07,10.0,WNW,6.9,-,N/A,,Overcast,290,2013-10-07 23:51:00
8:51 PM,55.0,44.1,67,30.10,10.0,West,4.6,-,N/A,,Mostly Cloudy,280,2013-10-08 00:51:00
9:51 PM,54.0,44.1,69,30.13,10.0,WNW,4.6,-,N/A,,Partly Cloudy,290,2013-10-08 01:51:00
10:51 PM,53.1,44.1,71,30.15,10.0,West,4.6,-,N/A,,Clear,270,2013-10-08 02:51:00
11:51 PM,52.0,44.1,74,30.17,10.0,Calm,Calm,-,N/A,,Clear,0,2013-10-08 03:51:00